Home > Time Zones > World Clock > Weather > Russia > Ufa > Past weeks

Flag for Russia Weather past 2 weeks in Ufa, Russia

Now
63 °F

Overcast.


Feels Like: 63 °F
Forecast: 54 / 71 °F
Wind: 6 mph from Northwest

Location: Ufa

Current Time: Aug 1, 2014 at 2:39:50 PM

Latest Report: Aug 1, 2014 at 2:00 PM


Visibility: N/A

Pressure: 30.04 "Hg

Humidity: 73%

Dew point: 54 °F

Location of UfaLocation

Historic Weather in Ufa — Graph

°F

Ufa temperature yesterday

Maximum temperature yesterday: 81 °F (at 4:00 PM)
Minimum temperature yesterday: 63 °F (at 6:30 AM)
Average temperature yesterday: 69 °F

Past Weeks' High & Low Weather Summary

 TemperatureHumidityPressure
High84 °F (Jul 17, 3:00 PM)100% (Jul 18, 7:00 AM)30.09 "Hg (Jul 18, 7:00 AM)
Low41 °F (Jul 19, 4:30 AM)33% (Jul 24, 6:00 PM)29.50 "Hg (Jul 23, 8:30 AM)
Average57 °F77%29.82 "Hg
* Reported Jul 17 1:00 PM — Aug 1 1:30 PM, Ufa, Weather by CustomWeather, © 2014

Note: Actual official high and low records may vary slightly from our data, if they occured in-between our weather recording intervals... More about our weather records

Advertising

Ufa weather history for previous 24 hours

 ConditionsComfort  
Time TempWeatherWind HumidityBarometerVisibility
1:30 PM
Aug 1
61 °FOvercast.10 mph77%30.04 "HgN/A
1:00 PM59 °FMostly cloudy.8 mph82%30.04 "HgN/A
12:30 PM59 °FMostly cloudy.8 mph82%30.04 "HgN/A
12:00 PM59 °FMostly cloudy.8 mph82%30.04 "HgN/A
11:30 AM59 °FMostly cloudy.10 mph77%30.04 "HgN/A
11:00 AM59 °FPartly sunny.10 mph82%30.01 "HgN/A
10:30 AM59 °FPartly sunny.8 mph82%30.01 "HgN/A
10:00 AM57 °FPartly sunny.10 mph88%30.01 "HgN/A
9:30 AM57 °FPartly sunny.10 mph94%30.01 "HgN/A
9:00 AM57 °FPartly sunny.8 mph88%30.01 "HgN/A
8:30 AM57 °FScattered clouds.10 mph88%30.01 "HgN/A
8:00 AM55 °FScattered clouds.10 mph94%30.01 "HgN/A
7:30 AM57 °FBroken clouds.10 mph88%30.01 "HgN/A
7:00 AM57 °FBroken clouds.3 mph88%29.98 "HgN/A
6:30 AM57 °FBroken clouds.6 mph94%29.98 "HgN/A
6:00 AM55 °FPartly cloudy.6 mph100%29.98 "HgN/A
5:30 AM55 °FClear.6 mph100%29.98 "Hg10 mi
5:00 AM57 °FClear.6 mph94%29.98 "Hg10 mi
4:30 AM57 °FClear.6 mph94%29.95 "Hg10 mi
4:00 AM57 °FClear.6 mph94%29.95 "Hg10 mi
3:30 AM57 °FClear.8 mph94%29.95 "Hg10 mi
3:00 AM59 °FPartly cloudy.8 mph94%29.95 "HgN/A
2:30 AM61 °FPartly cloudy.8 mph94%29.95 "HgN/A
2:00 AM61 °FPartly cloudy.6 mph94%29.95 "HgN/A
1:30 AM63 °FPartly cloudy.6 mph88%29.92 "HgN/A
1:00 AM63 °FPartly cloudy.6 mph94%29.92 "HgN/A
12:30 AM64 °FPartly cloudy.6 mph94%29.92 "HgN/A
12:00 AM64 °FPartly cloudy.6 mph94%29.92 "HgN/A
11:30 PM
Jul 31
66 °FPartly cloudy.6 mph94%29.92 "HgN/A
11:00 PM66 °FPartly cloudy.3 mph94%29.92 "HgN/A
10:30 PM68 °FPassing clouds.6 mph88%29.92 "HgN/A
10:00 PM68 °FPartly sunny.6 mph88%29.92 "HgN/A
9:30 PM70 °FPartly sunny.3 mph83%29.92 "HgN/A
9:00 PM72 °FPartly sunny.3 mph78%29.92 "HgN/A
8:30 PM72 °FPartly sunny.6 mph78%29.92 "HgN/A
8:00 PM72 °FPartly sunny.1 mph73%29.92 "HgN/A
7:30 PM70 °FPartly sunny.6 mph83%29.89 "HgN/A
7:00 PM70 °FPartly sunny.6 mph78%29.89 "HgN/A
6:30 PM70 °FPartly sunny.8 mph83%29.89 "HgN/A
6:00 PM68 °FThundershowers. Partly sunny.13 mph83%29.89 "HgN/A
5:30 PM75 °FPartly sunny.10 mph65%29.89 "HgN/A
5:00 PM77 °FPartly sunny.10 mph61%29.86 "HgN/A
4:30 PM77 °FPartly sunny.10 mph61%29.89 "HgN/A
4:00 PM81 °FPartly sunny.6 mph54%29.89 "HgN/A
3:30 PM75 °FPartly sunny.8 mph65%29.89 "HgN/A
3:00 PM79 °FPartly sunny.8 mph58%29.89 "HgN/A
2:30 PM79 °FPartly sunny.3 mph58%29.89 "HgN/A
2:00 PM77 °FBroken clouds.8 mph61%29.89 "HgN/A
Weather by CustomWeather, © 2014

See weather overviewHow to use our weather pages